Current weather by "City, St" or "zip code"  
 
Advertise Here

Current Conditions: Chillicothe Ross County Airport, OH

Fair


54.0 F

Last Updated on May 12 2021, 11:55 am EDT
Humidity: 44%
Wind Speed: E 10.4 mph
Barometer 30.38 in
Dewpoint: 32.0 F
Visibility: 10.00 mi
Precip: --
Heat Index: NA
Wind Chill: 51 F
Current conditions at:

Chillicothe Ross County Airport, OH (KRZT)

Lat: 39.4404 Lon: 83.0231

Local Radar Image active severe weather and emergency alerts image image weather storm and storm spotter reports image weather observation monitoring service image
Local
Radar
Active
Alerts
Storm Reports Obs
Monitoring

Sign-up For Email & Text Message Weather Alert Notification Services


Advertise Here

Observation History for Chillicothe Ross County Airport, OH


Time Wind
(mph)
Vis
(mi)
Weather Precip (in) Temperature (F) Relative
Humidity
Wind
Chill
(F)
Heat
Index
(F)
Pressure
Air Dwpt altimeter
(in)
sea level
(mb)
Rmks
11:55 am EDT E 10.4 10.00 Fair -- 54.0 32.0 44% 51 NA 30.38 M
10:55 am EDT NE 4.6 10.00 Fair -- 54.0 32.0 44% 53 NA 30.39 M
9:55 am EDT NE 8.1 10.00 Fair -- 50.0 32.0 50% 47 NA 30.40 M
8:55 am EDT NE 3.5 10.00 Fair -- 45.0 35.6 71% NA NA 30.40 M
7:55 am EDT N 0.0 10.00 Fair -- 41.0 33.8 76% NA NA 30.39 M
6:55 am EDT N 0.0 10.00 Fair -- 34.0 33.8 100% NA NA 30.37 M
5:55 am EDT N 0.0 10.00 Fair -- 34.0 33.8 100% NA NA 30.35 M
4:55 am EDT N 0.0 10.00 Fair -- 36.0 35.6 100% NA NA 30.34 M
3:55 am EDT N 0.0 10.00 Fair -- 37.0 35.6 93% NA NA 30.33 M
2:55 am EDT N 4.6 10.00 Fair -- 41.0 33.8 76% 38 NA 30.32 M
1:55 am EDT N 4.6 10.00 Fair -- 41.0 32.0 70% 38 NA 30.34 M
12:55 am EDT N 0.0 10.00 Fair -- 41.0 32.0 70% NA NA 30.34 M
11:55 pm EDT N 0.0 10.00 Fair -- 43.0 32.0 66% NA NA 30.34 M
10:55 pm EDT N 4.6 10.00 Fair -- 43.0 32.0 66% 40 NA 30.34 M
9:55 pm EDT N 4.6 10.00 Fair -- 45.0 32.0 61% 43 NA 30.31 M
8:55 pm EDT N 4.6 10.00 Fair -- 48.0 30.2 50% 46 NA 30.28 M
7:55 pm EDT N 8.1 10.00 Partly Cloudy -- 52.0 28.4 41% 49 NA 30.26 M
6:55 pm EDT N 9.2 10.00 Mostly Cloudy -- 52.0 28.4 41% 49 NA 30.25 M
5:55 pm EDT N 11.5 G 16.1 10.00 Mostly Cloudy -- 54.0 30.2 41% 51 NA 30.25 M
4:55 pm EDT N 12.7 G 18.4 10.00 Mostly Cloudy -- 55.0 30.2 38% 52 NA 30.23 M
3:55 pm EDT NE 10.4 10.00 Mostly Cloudy -- 54.0 32.0 44% 51 NA 30.23 M
2:55 pm EDT N 5.8 10.00 Partly Cloudy -- 54.0 30.2 41% 53 NA 30.25 M
1:55 pm EDT N 6.9 G 16.1 10.00 Fair -- 54.0 30.2 41% 52 NA 30.26 M
12:55 pm EDT N 10.4 G 17.3 10.00 Mostly Cloudy -- 52.0 32.0 47% 48 NA 30.26 M

Regional Weather Observation


Chillicothe Ross County Airport, OH (KRZT)

Fair
54.0 F

Fayette County Airport, OH (KI23)

Fair
55.0 F

London Madison County Airport, OH (KUYF)

Fair
55.0 F

Rickenbacker Air National Guard Base, OH (KLCK)

Fair
57.0 F

Springfield, Springfield-Beckley Municipal Airport, OH (KSGH)

Fair
57.0 F

Wilmington, Airborne Airpark Airport, OH (KILN)

Fair
55.0 F
Advertise Here

Advertise Here